Location: American Medical Response
(33.3472°N, 96.5511°W)
Time: 00:42:30
(UTC+00:00)

SL-4 R/B - Pass Details

Date: 12 July 2022
Orbit: 425 x 653 km, 51.6° (Epoch: 15 August)

Event Time Altitude Azimuth Distance (km) Brightness Sun altitude
Rises 02:01:34 0° 210° (SSW) 2,394 5.3 -5.2°
Reaches altitude 10° 02:03:46 10° 202° (SSW) 1,515 4.2 -5.5°
Maximum altitude 02:06:56 39° 132° (SE) 652 1.9 -6.1°
Drops below altitude 10° 02:10:07 10° 62° (ENE) 1,515 4.0 -6.7°
Sets 02:12:18 0° 54° (NE) 2,394 5.1 -7.1°
